This demonstration page uses our WeatherBlox Daily Observations layout. Learn more.

Left ArrowRight Arrow

Hourly Observations for May 3, 2015

Temp ( °F °C ) Dew Point ( °F °C ) Humidity (%) Winds ( mph kmh ) Pressure ( in mb ) Visibility ( mi km ) Precip ( " mm )
12:53 am 00:53 Clear 69 20.6 51 10.6 53 53 S 10 17 29.69 1005 10 16 0.00 0.00
1:53 am 01:53 Clear 67 19.4 51 10.6 57 57 S 9 15 29.68 1005 10 16 0.00 0.00
2:53 am 02:53 Mostly Clear 65 18.3 51 10.6 61 61 SSW 9 15 29.68 1005 10 16 0.00 0.00
3:53 am 03:53 Clear 62 16.7 51 10.6 67 67 S 6 9 29.67 1005 10 16 0.00 0.00
4:53 am 04:53 Clear 61 16.1 51 10.6 70 70 SW 6 9 29.67 1005 10 16 0.00 0.00
5:53 am 05:53 Clear 58 14.4 50 10 75 75 WSW 6 9 29.68 1005 10 16 0.00 0.00
6:53 am 06:53 Sunny 56 13.3 48 8.9 75 75 Calm 29.69 1005 10 16 0.00 0.00
7:53 am 07:53 Sunny 61 16.1 51 10.6 70 70 Calm 29.70 1006 10 16 0.00 0.00
8:53 am 08:53 Sunny 61 16.1 52 11.1 72 72 S 7 11 29.72 1007 10 16 0.00 0.00
9:53 am 09:53 Sunny 72 22.2 51 10.6 48 48 SW 6 9 29.71 1006 10 16 0.00 0.00
10:53 am 10:53 Sunny 79 26.1 46 7.8 31 31 W 9 15 29.71 1006 10 16 0.00 0.00
11:53 am 11:53 Sunny 83 28.3 45 7.2 26 26 WSW 7 11 29.70 1006 10 16 0.00 0.00
12:53 pm 12:53 Sunny 86 30 45 7.2 24 24 SW 6 9 29.70 1006 10 16 0.00 0.00
1:53 pm 13:53 Sunny 89 31.7 42 5.6 19 19 SW 12 19 29.68 1005 10 16 0.00 0.00
2:53 pm 14:53 Sunny 89 31.7 42 5.6 19 19 W 9 15 29.68 1005 10 16 0.00 0.00
3:53 pm 15:53 Sunny 90 32.2 40 4.4 17 17 W 12 19 29.68 1005 10 16 0.00 0.00
4:53 pm 16:53 Mostly Sunny 90 32.2 40 4.4 17 17 W 17 28 29.67 1005 10 16 0.00 0.00
5:53 pm 17:53 Partly Cloudy 89 31.7 38 3.3 16 16 WSW 12 19 29.67 1005 10 16 0.00 0.00
6:53 pm 18:53 Partly Cloudy with Nearby Thunderstorms 87 30.6 41 5 20 20 W 7 11 29.67 1005 10 16 0.00 0.00
7:09 pm 19:09 Partly Cloudy 88 31 41 5 19 19 W 9 15 29.56 1001 10 16 0.00 0.00
7:38 pm 19:38 Mostly Sunny 82 28 54 12 37 37 N 23 37 29.62 1003 10 16 0.00 0.00
7:53 pm 19:53 Sunny 81 27.2 55 12.8 41 41 N 21 33 29.70 1006 10 16 0.00 0.00
8:53 pm 20:53 Clear 77 25 55 12.8 47 47 N 15 24 29.74 1007 10 16 0.00 0.00
9:53 pm 21:53 Clear 71 21.7 50 10 47 47 N 20 31 29.79 1009 10 16 0.00 0.00
10:53 pm 22:53 Partly Cloudy 68 20 46 7.8 45 45 N 21 33 29.81 1009 10 16 0.00 0.00
11:53 pm 23:53 Clear 66 18.9 45 7.2 47 47 NNE 18 30 29.81 1009 10 16 0.00 0.00

Powered by AerisWeather